When you browse on this site, cookies collect data to enhance your experience and personalize the content and advertising you see.
Visit our Privacy Policy to learn more. By continuing to use the site, you agree to this use of cookies and data.
  • In Hungary
  • List of Countries
  • For 7 days
  • Water Temperature
  • Satellite Maps
  • Weather Map
  • News
  • Weather Widgets
  • user-avatar
    Login

    Hourly Weather Ivanichi

    Today, 20 April, Saturday

    Time Temperature Precipitation Wind Pressure Humidity
    00:00 +9°C° 0 mm 1 mps 753 mmHg 53%
    01:00 +8°C° 0 mm 1 mps 753 mmHg 54%
    02:00 +8°C° 0 mm 1 mps 753 mmHg 55%
    03:00 +6°C° 0 mm 0 mps 753 mmHg 55%
    04:00 +6°C° 0 mm 0 mps 752 mmHg 56%
    05:00 +6°C° 0 mm 0 mps 752 mmHg 57%
    06:00 +8°C° 0 mm 1 mps 752 mmHg 54%
    07:00 +10°C° 0 mm 1 mps 752 mmHg 52%
    08:00 +12°C° 0 mm 1 mps 753 mmHg 50%
    09:00 +13°C° 0 mm 2 mps 752 mmHg 46%
    10:00 +15°C° 0 mm 2 mps 752 mmHg 43%
    11:00 +16°C° 0 mm 2 mps 752 mmHg 40%
    12:00 +16°C° 0 mm 2 mps 752 mmHg 40%
    13:00 +17°C° 0 mm 2 mps 751 mmHg 40%
    14:00 +17°C° 0 mm 2 mps 751 mmHg 41%
    15:00 +17°C° 0 mm 2 mps 751 mmHg 43%
    16:00 +17°C° 0 mm 2 mps 750 mmHg 45%
    17:00 +17°C° 0 mm 2 mps 750 mmHg 47%
    18:00 +16°C° 0.1 mm 1 mps 750 mmHg 51%
    19:00 +14°C° 0.1 mm 1 mps 749 mmHg 55%
    20:00 +13°C° 0.1 mm 1 mps 749 mmHg 58%
    21:00 +13°C° 0.1 mm 1 mps 749 mmHg 61%
    22:00 +12°C° 0.1 mm 1 mps 749 mmHg 63%
    23:00 +10°C° 0.1 mm 2 mps 749 mmHg 65%

    Tomorrow, 21 April, Sunday

    Time Temperature Precipitation Wind Pressure Humidity
    00:00 +9°C° 0 mm 2 mps 748 mmHg 65%
    01:00 +9°C° 0 mm 2 mps 748 mmHg 66%
    02:00 +8°C° 0 mm 2 mps 748 mmHg 66%
    03:00 +8°C° 0 mm 2 mps 748 mmHg 67%
    04:00 +8°C° 0 mm 2 mps 748 mmHg 68%
    05:00 +8°C° 0 mm 2 mps 748 mmHg 69%
    06:00 +8°C° 0.2 mm 2 mps 748 mmHg 73%
    07:00 +8°C° 0.2 mm 2 mps 748 mmHg 77%
    08:00 +8°C° 0.2 mm 2 mps 747 mmHg 80%
    09:00 +9°C° 0.3 mm 2 mps 747 mmHg 77%
    10:00 +10°C° 0.3 mm 2 mps 747 mmHg 74%
    11:00 +12°C° 0.3 mm 2 mps 747 mmHg 71%
    12:00 +13°C° 0.3 mm 2 mps 747 mmHg 65%
    13:00 +13°C° 0.3 mm 3 mps 746 mmHg 59%
    14:00 +16°C° 0.3 mm 3 mps 746 mmHg 54%
    15:00 +14°C° 0.7 mm 3 mps 746 mmHg 56%
    16:00 +14°C° 0.7 mm 3 mps 745 mmHg 58%
    17:00 +13°C° 0.7 mm 3 mps 745 mmHg 61%
    18:00 +13°C° 0 mm 2 mps 745 mmHg 66%
    19:00 +12°C° 0 mm 2 mps 745 mmHg 71%
    20:00 +11°C° 0 mm 1 mps 745 mmHg 76%
    21:00 +10°C° 0.3 mm 1 mps 745 mmHg 78%
    22:00 +9°C° 0.3 mm 1 mps 745 mmHg 80%
    23:00 +9°C° 0.3 mm 1 mps 745 mmHg 83%

    Day after tomorrow, 22 April, Monday

    Time Temperature Precipitation Wind Pressure Humidity
    00:00 +9°C° 0 mm 1 mps 745 mmHg 83%
    01:00 +9°C° 0 mm 1 mps 745 mmHg 84%
    02:00 +8°C° 0 mm 1 mps 745 mmHg 85%
    03:00 +8°C° 0.1 mm 1 mps 746 mmHg 87%
    04:00 +7°C° 0.1 mm 2 mps 746 mmHg 89%
    05:00 +7°C° 0.1 mm 2 mps 746 mmHg 91%
    06:00 +8°C° 0 mm 3 mps 747 mmHg 87%
    07:00 +8°C° 0 mm 4 mps 747 mmHg 82%
    08:00 +9°C° 0 mm 5 mps 747 mmHg 77%
    09:00 +10°C° 0 mm 6 mps 748 mmHg 69%
    10:00 +11°C° 0 mm 7 mps 748 mmHg 62%
    11:00 +13°C° 0 mm 8 mps 748 mmHg 54%
    12:00 +13°C° 0 mm 8 mps 748 mmHg 51%
    13:00 +15°C° 0 mm 8 mps 748 mmHg 47%
    14:00 +15°C° 0 mm 8 mps 748 mmHg 43%
    15:00 +15°C° 0 mm 8 mps 748 mmHg 44%
    16:00 +15°C° 0 mm 8 mps 748 mmHg 45%
    17:00 +14°C° 0 mm 7 mps 748 mmHg 47%
    18:00 +12°C° 0 mm 7 mps 748 mmHg 50%
    19:00 +11°C° 0 mm 6 mps 748 mmHg 53%
    20:00 +10°C° 0 mm 6 mps 749 mmHg 57%
    21:00 +9°C° 0 mm 6 mps 749 mmHg 58%
    22:00 +8°C° 0 mm 6 mps 749 mmHg 59%
    23:00 +8°C° 0 mm 6 mps 749 mmHg 60%

    23 April, Tuesday

    Time Temperature Precipitation Wind Pressure Humidity
    00:00 +8°C° 0 mm 6 mps 749 mmHg 60%
    01:00 +7°C° 0 mm 6 mps 749 mmHg 61%
    02:00 +7°C° 0 mm 6 mps 750 mmHg 62%
    03:00 +7°C° 0 mm 6 mps 749 mmHg 62%
    04:00 +5°C° 0 mm 6 mps 749 mmHg 63%
    05:00 +5°C° 0 mm 6 mps 749 mmHg 64%
    06:00 +6°C° 0 mm 7 mps 750 mmHg 61%
    07:00 +7°C° 0 mm 8 mps 750 mmHg 58%
    08:00 +8°C° 0 mm 9 mps 750 mmHg 55%
    09:00 +10°C° 0 mm 9 mps 750 mmHg 51%
    10:00 +12°C° 0 mm 10 mps 750 mmHg 48%
    11:00 +13°C° 0 mm 10 mps 750 mmHg 45%
    12:00 +13°C° 0 mm 10 mps 749 mmHg 45%
    13:00 +14°C° 0 mm 10 mps 749 mmHg 44%
    14:00 +16°C° 0 mm 10 mps 749 mmHg 44%
    15:00 +15°C° 0 mm 9 mps 748 mmHg 45%
    16:00 +15°C° 0 mm 9 mps 748 mmHg 47%
    17:00 +15°C° 0 mm 9 mps 748 mmHg 48%
    18:00 +13°C° 0 mm 8 mps 748 mmHg 52%
    19:00 +11°C° 0 mm 7 mps 748 mmHg 55%
    20:00 +10°C° 0 mm 6 mps 748 mmHg 58%
    21:00 +10°C° 0 mm 6 mps 748 mmHg 58%
    22:00 +10°C° 0 mm 7 mps 748 mmHg 58%
    23:00 +9°C° 0 mm 7 mps 748 mmHg 58%

    24 April, Wednesday

    Time Temperature Precipitation Wind Pressure Humidity
    00:00 +9°C° 0 mm 7 mps 748 mmHg 58%
    01:00 +9°C° 0 mm 7 mps 748 mmHg 58%
    02:00 +8°C° 0 mm 7 mps 748 mmHg 58%
    03:00 +8°C° 0 mm 7 mps 748 mmHg 59%
    04:00 +8°C° 0 mm 7 mps 748 mmHg 59%
    05:00 +6°C° 0 mm 7 mps 748 mmHg 59%
    06:00 +7°C° 0 mm 8 mps 748 mmHg 59%
    07:00 +8°C° 0 mm 9 mps 748 mmHg 59%
    08:00 +10°C° 0 mm 9 mps 748 mmHg 58%
    09:00 +11°C° 0 mm 10 mps 749 mmHg 56%
    10:00 +12°C° 0 mm 10 mps 749 mmHg 54%
    11:00 +14°C° 0 mm 10 mps 749 mmHg 51%
    12:00 +14°C° 0 mm 10 mps 749 mmHg 52%
    13:00 +16°C° 0 mm 9 mps 749 mmHg 52%
    14:00 +16°C° 0 mm 9 mps 748 mmHg 53%
    15:00 +15°C° 0 mm 8 mps 748 mmHg 56%
    16:00 +15°C° 0 mm 8 mps 748 mmHg 59%
    17:00 +14°C° 0 mm 7 mps 748 mmHg 61%
    18:00 +14°C° 0 mm 7 mps 748 mmHg 64%
    19:00 +12°C° 0 mm 7 mps 748 mmHg 66%
    20:00 +11°C° 0 mm 6 mps 748 mmHg 68%
    21:00 +11°C° 0 mm 6 mps 748 mmHg 67%
    22:00 +11°C° 0 mm 6 mps 749 mmHg 66%
    23:00 +12°C° 0 mm 5 mps 749 mmHg 66%

    25 April, Thursday

    Time Temperature Precipitation Wind Pressure Humidity
    00:00 +12°C° 0 mm 5 mps 749 mmHg 65%
    01:00 +12°C° 0 mm 5 mps 748 mmHg 65%
    02:00 +12°C° 0 mm 5 mps 748 mmHg 65%
    03:00 +10°C° 0 mm 5 mps 748 mmHg 67%
    04:00 +10°C° 0 mm 5 mps 748 mmHg 70%
    05:00 +10°C° 0 mm 4 mps 748 mmHg 73%
    06:00 +10°C° 0 mm 5 mps 748 mmHg 71%
    07:00 +12°C° 0 mm 5 mps 749 mmHg 69%
    08:00 +13°C° 0 mm 6 mps 749 mmHg 67%
    09:00 +14°C° 0 mm 6 mps 749 mmHg 63%
    10:00 +15°C° 0 mm 6 mps 749 mmHg 60%
    11:00 +17°C° 0 mm 6 mps 749 mmHg 56%
    12:00 +17°C° 0 mm 6 mps 748 mmHg 55%
    13:00 +19°C° 0 mm 6 mps 748 mmHg 53%
    14:00 +20°C° 0 mm 6 mps 748 mmHg 51%
    15:00 +20°C° 0 mm 6 mps 747 mmHg 52%
    16:00 +20°C° 0 mm 6 mps 747 mmHg 53%
    17:00 +19°C° 0 mm 6 mps 747 mmHg 54%
    18:00 +17°C° 0 mm 6 mps 746 mmHg 58%
    19:00 +15°C° 0 mm 5 mps 746 mmHg 62%
    20:00 +14°C° 0 mm 4 mps 746 mmHg 67%
    21:00 +13°C° 0 mm 4 mps 746 mmHg 68%
    22:00 +13°C° 0 mm 4 mps 746 mmHg 69%
    23:00 +12°C° 0 mm 4 mps 745 mmHg 71%
    Show more